Tracking 19484 objects as of 19-Jan-2019
HD Live streaming from Space Station
objects crossing your sky now

NOAA 3

Track NOAA 3 now!
10-day predictions
NOAA 3 is classified as:


NORAD ID: 6920
Int'l Code: 1973-086A
Perigee: 1,507.1 km
Apogee: 1,517.5 km
Inclination: 102.0 °
Period: 116.1 minutes
Semi major axis: 7883 km
RCS: 3.3381 m2 (large)
Launch date: November 6, 1973
Source: United States (US)
Launch site: AIR FORCE WESTERN TEST RANGE (AFWTR)
aabbcc
Your satellite tracking list
Your tracking list is empty




NASA's NSSDC Master Catalog

Two Line Element Set (TLE):
1  6920U 73086A   19018.57992291 -.00000061  00000-0 -12363-3 0  9991
2  6920 102.0297 349.3043 0006611  73.1635  39.7010 12.40345328 46513
Source of the keplerian elements: AFSPC